Temperature
16 16 16 16 16 16 16 16 16 16 16 16 15 15 15 15 15 14 14 14 15 14 14 14 14 14 14 14 14 14 14 14 14 14 14 13 13 13
16 16 16 16 16 16 16 15 15 16 16 15 15 14 14 14 14 14 14 14 14 14 14 14 14 14 13 13 13 13 13 13 13 13 13 13 13 13
16 16 16 16 15 15 15 15 15 15 15 15 14 14 14 13 14 13 13 13 13 13 13 13 13 13 13 13 13 13 13 13 13 13 13 13 13 13
15 15 15 15 15 15 15 15 15 15 15 14 14 14 13 13 13 13 13 13 13 13 13 13 13 13 12 12 12 12 12 12 12 12 12 12 12 12
15 15 15 15 15 15 15 15 14 14 14 14 14 13 13 13 13 13 13 13 12 12 12 12 12 12 12 12 12 12 12 12 12 12 12 12 12 12
15 15 15 15 15 14 14 14 14 14 14 14 14 13 13 13 13 12 12 12 12 12 12 12 12 12 12 12 12 11 11 11 11 11 11 11 11 11
15 15 15 14 14 14 14 14 14 13 13 13 13 13 13 12 12 12 12 12 12 12 12 11 11 11 11 11 11 11 11 11 11 11 11 11 11 11
14 14 14 14 14 14 14 14 14 13 13 13 13 13 12 12 12 12 12 12 12 11 11 11 11 11 11 11 11 11 11 11 11 10 10 10 10 10
14 14 14 13 13 13 13 13 13 13 13 13 12 12 12 12 12 12 11 11 11 11 11 11 11 11 10 11 10 10 10 10 10 10 10 10 10 10
14 13 13 13 13 13 12 12 12 12 12 12 12 12 12 12 11 11 11 11 11 11 11 11 11 10 10 10 10 10 10 10 10 10 9 9 9 9
13 13 13 13 13 13 12 12 12 12 12 12 12 12 12 12 11 11 11 11 11 11 10 10 11 10 10 10 10 10 10 10 9 9 9 9 9 9
13 13 13 13 13 12 12 11 11 11 11 11 11 11 11 11 11 11 11 11 11 11 10 10 10 10 10 10 10 9 9 9 9 9 9 9 9 8
13 13 12 12 12 12 12 11 11 11 11 11 11 11 11 11 11 10 10 10 11 11 10 10 10 10 10 10 9 9 9 9 9 9 9 8 8 8
12 12 12 12 12 12 12 11 11 11 11 11 11 11 11 11 10 10 10 10 10 10 10 10 10 10 10 10 10 9 9 9 9 8 8 8 8 8
12 12 12 12 11 11 11 11 11 11 11 11 11 11 11 10 10 10 10 10 10 10 9 9 9 9 10 10 10 9 9 9 9 8 8 8 8 8
12 12 12 11 11 11 11 11 11 11 11 11 11 11 10 10 10 10 10 10 10 9 9 9 9 9 9 9 9 9 9 9 9 8 8 8 8 8
12 11 12 11 11 11 11 11 11 10 10 11 11 10 10 10 10 10 10 10 10 10 9 9 9 9 9 9 9 9 9 9 8 8 8 8 8 8
11 11 12 12 12 12 11 11 11 10 10 10 10 10 10 10 10 10 10 10 10 10 9 9 9 9 9 9 9 8 9 8 8 8 8 8 8 7
11 11 11 12 11 11 11 11 11 10 10 10 10 10 10 10 10 10 10 10 10 10 9 9 9 9 9 10 9 8 8 8 8 8 8 8 8 7
11 11 11 11 11 11 11 11 11 10 10 10 10 10 10 10 10 10 10 9 9 9 9 9 9 9 9 9 9 8 8 8 8 8 8 7 7 7
11 11 11 11 11 11 11 11 10 10 10 10 10 10 10 9 9 10 10 9 9 9 9 9 9 8 8 8 9 8 8 8 7 7 7 7 7 7
11 11 11 11 11 11 10 10 10 10 10 10 10 9 9 9 9 9 9 9 9 9 9 9 9 8 8 8 9 8 8 7 7 7 7 7 7 7
11 11 11 10 10 10 10 10 10 10 10 9 9 9 9 9 9 9 9 9 9 9 9 9 9 8 8 8 8 8 8 8 8 7 7 7 7 6
Wind_Speed
3 3 4 3 3 3 3 4 4 4 2 1 1 1 1 1 2 1 1 5 5 4 4 4 4 4 4 4 3 4 3 4 4 4 4 4 4 4
2 2 3 3 2 3 3 3 4 4 3 1 0 1 2 1 3 1 2 6 7 6 6 6 5 5 5 4 4 4 3 4 3 3 3 3 2 2
2 1 2 2 2 2 2 2 3 3 3 2 1 1 1 1 2 2 2 2 5 7 7 6 6 5 5 5 5 5 5 5 5 4 3 2 2 2
1 2 2 1 1 2 2 2 1 1 2 2 1 0 0 1 2 1 2 3 4 8 8 7 7 6 6 6 5 5 5 5 5 5 5 4 3 2
1 1 1 1 1 1 1 1 1 1 1 1 1 0 0 1 1 2 2 1 3 7 8 8 7 7 6 6 6 6 6 6 6 6 5 5 4 4
1 1 2 1 1 1 0 1 0 1 1 1 1 1 1 1 1 1 1 1 1 3 4 5 7 8 7 7 6 6 6 6 5 5 5 5 4 4
1 1 2 3 4 3 2 1 1 1 1 1 1 1 1 1 1 1 1 1 2 1 2 3 4 4 5 6 6 6 6 6 6 6 5 5 4 4
1 1 2 2 3 3 3 3 2 1 1 1 1 1 1 1 1 1 1 1 1 1 1 1 2 2 2 3 6 7 7 7 6 5 5 5 4 4
1 1 0 2 1 2 3 4 2 2 1 2 1 2 2 1 1 1 1 1 1 1 1 1 1 1 2 4 7 8 7 6 5 5 5 5 4 4
2 1 1 1 1 0 1 2 1 1 0 1 0 1 1 1 2 2 2 2 2 2 1 1 1 1 2 3 7 7 7 6 5 5 5 5 5 5
2 2 2 2 2 2 1 2 2 2 3 3 2 2 2 1 2 2 2 2 1 2 2 1 1 1 1 3 6 7 7 7 6 6 6 6 6 7
3 3 3 2 2 1 2 2 2 1 1 3 3 4 3 3 2 2 2 2 1 1 2 2 1 1 1 2 3 5 5 7 8 8 8 8 7 6
3 3 3 5 3 2 3 2 1 2 3 3 3 3 3 3 3 2 2 2 2 2 1 2 2 2 2 2 2 3 3 4 6 7 8 9 9 7
3 3 3 6 5 3 3 1 2 5 3 3 3 3 2 2 1 1 1 1 2 1 0 2 2 2 2 2 2 2 2 3 4 4 4 7 9 9
3 2 3 6 7 6 6 5 5 4 3 3 3 2 2 1 1 2 2 2 2 2 2 3 3 3 3 3 2 2 2 3 3 3 3 3 4 5
5 5 8 8 7 5 5 6 5 4 3 3 3 2 2 3 3 2 2 2 3 2 3 3 3 3 4 3 3 2 2 2 3 3 3 3 4 5
4 5 5 5 6 5 5 5 4 4 4 4 4 3 3 3 3 3 3 3 3 2 2 3 4 4 4 3 3 3 3 3 3 2 4 4 4 5
6 7 6 6 6 6 5 5 5 5 5 4 4 4 4 3 3 3 3 3 3 3 3 3 3 3 4 3 3 4 3 4 3 2 4 4 4 3
8 8 7 7 6 6 6 6 6 5 5 5 4 4 4 4 4 4 4 4 4 4 4 3 4 4 5 4 3 4 4 3 3 3 3 4 4 3
9 8 7 7 6 6 6 6 5 5 5 5 5 5 5 5 5 5 5 5 5 5 4 4 4 5 5 5 2 3 5 4 4 4 4 4 3 1
8 8 7 7 6 5 5 5 5 5 5 5 5 5 5 5 5 5 5 5 6 5 5 4 3 5 5 5 4 3 3 6 4 4 4 5 4 4
7 6 6 6 5 5 6 6 6 6 6 6 5 5 5 5 6 6 5 5 5 5 6 4 3 4 5 6 6 5 4 4 6 7 5 5 5 5
6 5 5 5 5 5 5 6 6 6 6 6 6 5 5 5 5 5 5 5 5 5 5 5 4 5 5 6 6 5 4 4 4 4 5 7 7 7
Wind_Direction
264 255 265 265 269 273 269 261 266 273 269 207 241 62 17 57 80 129 124 114 122 122 127 133 131 132 135 137 149 155 150 162 174 180 186 195 202 211
276 287 277 272 265 262 258 257 261 270 274 310 317 20 16 28 92 102 121 127 121 121 118 120 121 120 122 125 128 137 141 144 141 148 165 165 173 187
278 275 276 287 274 263 254 252 256 258 253 277 343 59 53 34 62 78 105 129 113 116 120 124 124 121 116 115 116 121 123 122 117 112 113 134 154 168
304 307 304 299 288 282 265 250 247 240 232 234 262 268 67 75 71 81 85 94 102 110 119 123 126 126 125 124 120 117 120 124 117 110 101 94 97 111
327 318 327 329 334 329 304 281 238 193 199 201 225 158 336 91 102 102 96 98 117 123 130 130 132 133 131 129 125 121 120 122 125 122 113 102 93 91
42 23 20 15 4 337 288 285 270 214 174 191 192 181 146 112 139 141 138 133 116 111 119 134 139 149 147 145 143 139 136 132 130 127 124 120 113 107
112 75 65 58 40 17 357 4 225 218 195 184 194 189 157 152 189 181 137 134 126 111 134 140 144 146 151 158 159 152 146 145 143 140 138 139 141 139
140 121 133 112 97 93 63 45 28 236 231 236 221 212 206 193 203 192 165 162 141 142 196 149 139 129 128 126 135 148 152 154 155 154 152 154 157 159
159 175 151 95 146 111 136 157 114 63 342 274 245 230 218 210 230 217 203 230 187 145 195 167 129 123 126 113 130 143 147 155 164 170 172 174 178 182
171 170 153 124 77 79 144 129 122 101 151 243 247 244 249 233 233 230 216 205 186 152 165 229 169 158 145 140 144 153 161 170 180 187 191 194 197 201
181 169 165 147 78 325 177 156 160 160 134 105 81 96 69 37 294 219 199 211 207 163 166 246 199 176 174 163 155 167 179 186 192 199 206 211 215 215
176 168 130 125 124 286 202 181 182 183 172 158 160 171 168 165 213 244 245 242 229 196 148 227 213 203 193 163 165 179 188 191 199 203 205 210 218 231
200 189 153 139 158 226 251 212 206 247 217 203 189 181 176 177 194 212 265 276 265 254 168 217 245 246 251 208 209 202 204 205 205 206 207 210 217 237
228 211 160 159 177 210 229 181 235 251 225 215 210 206 205 202 189 195 239 286 308 296 241 253 265 267 268 251 241 225 230 229 221 219 213 204 216 226
225 133 164 186 198 204 199 207 223 232 228 220 216 217 218 210 200 199 196 215 224 216 191 236 259 262 270 270 258 245 254 247 232 232 227 221 223 224
212 182 190 208 222 221 199 207 220 229 240 234 226 218 215 206 214 219 226 221 224 200 184 207 246 258 262 275 272 257 253 248 245 249 244 246 234 237
211 214 215 211 214 217 215 214 221 219 222 227 224 221 222 216 218 223 235 242 243 241 214 206 217 237 253 273 272 269 265 265 258 251 252 254 247 236
216 223 225 226 227 224 221 216 214 219 223 224 225 229 231 227 225 224 225 237 242 244 243 230 220 228 229 221 265 265 262 267 271 237 245 256 256 243
217 228 229 230 232 230 226 224 218 213 217 222 224 229 235 235 233 231 230 235 240 245 244 237 235 242 249 246 214 234 267 275 276 264 259 263 261 255
226 231 232 232 231 230 229 225 220 215 212 218 222 228 232 234 232 230 230 237 242 244 241 236 235 246 262 273 262 225 219 254 271 272 272 271 269 229
226 230 232 232 229 225 225 226 224 222 222 226 225 227 230 234 236 233 228 219 240 245 246 242 237 239 257 268 258 234 209 210 240 271 278 272 267 252
229 230 230 230 223 220 217 219 219 216 215 222 227 229 231 233 233 233 235 234 233 244 251 246 217 226 243 252 257 252 240 220 211 215 242 265 278 270
231 227 225 223 221 217 218 218 221 221 219 224 227 227 229 232 236 236 234 238 240 244 249 250 238 232 240 246 254 260 254 246 244 233 225 215 224 232
Height
1533 1532 1532 1532 1532 1532 1531 1532 1533 1532 1532 1531 1532 1531 1530 1530 1529 1528 1528 1527 1527 1527 1527 1527 1528 1528 1528 1528 1529 1529 1529 1530 1531 1531 1532 1533 1533 1534
1530 1530 1529 1530 1529 1529 1529 1529 1529 1530 1529 1529 1529 1528 1528 1528 1527 1526 1525 1525 1525 1525 1525 1525 1525 1526 1526 1526 1526 1527 1527 1527 1528 1529 1529 1530 1530 1530
1528 1528 1527 1527 1527 1527 1526 1526 1526 1526 1526 1527 1527 1526 1525 1525 1525 1524 1524 1524 1523 1523 1523 1523 1523 1523 1524 1524 1524 1525 1525 1525 1525 1526 1527 1527 1527 1527
1527 1526 1526 1525 1525 1525 1524 1524 1524 1524 1524 1524 1524 1524 1523 1523 1523 1522 1522 1522 1522 1521 1521 1521 1521 1522 1522 1522 1522 1522 1523 1523 1523 1524 1524 1524 1525 1525
1525 1525 1524 1524 1523 1523 1522 1522 1522 1522 1522 1522 1522 1522 1522 1522 1521 1521 1521 1521 1521 1520 1520 1520 1520 1520 1520 1520 1520 1520 1521 1522 1522 1522 1522 1522 1522 1523
1523 1523 1522 1522 1522 1521 1521 1521 1521 1520 1520 1521 1521 1521 1521 1521 1521 1521 1520 1520 1520 1520 1519 1519 1519 1519 1519 1518 1519 1519 1519 1520 1520 1520 1520 1520 1521 1521
1522 1521 1521 1521 1520 1520 1520 1520 1520 1519 1520 1519 1520 1520 1520 1519 1519 1519 1519 1519 1519 1519 1519 1519 1518 1518 1518 1517 1517 1517 1518 1518 1518 1518 1519 1519 1519 1519
1520 1520 1520 1519 1519 1518 1518 1518 1518 1518 1518 1518 1519 1518 1518 1518 1518 1518 1518 1518 1518 1519 1518 1518 1518 1517 1517 1516 1516 1516 1516 1516 1517 1517 1517 1517 1517 1517
1519 1519 1519 1518 1518 1517 1517 1516 1517 1517 1517 1517 1517 1517 1517 1516 1516 1517 1517 1517 1517 1517 1517 1517 1517 1517 1516 1515 1515 1515 1515 1515 1515 1515 1515 1515 1515 1515
1517 1517 1517 1516 1516 1516 1516 1516 1515 1515 1515 1515 1516 1515 1515 1515 1515 1515 1515 1515 1516 1516 1516 1516 1516 1516 1515 1514 1514 1514 1514 1513 1513 1513 1513 1513 1513 1513
1516 1515 1515 1515 1515 1514 1514 1514 1514 1514 1514 1514 1514 1514 1514 1513 1513 1514 1514 1515 1515 1515 1514 1515 1515 1514 1514 1513 1512 1512 1512 1512 1512 1512 1511 1511 1511 1511
1514 1514 1513 1513 1513 1513 1513 1513 1513 1513 1513 1513 1513 1512 1512 1512 1512 1512 1513 1513 1513 1513 1513 1513 1513 1513 1513 1513 1512 1511 1511 1510 1510 1509 1509 1509 1509 1509
1513 1513 1512 1511 1511 1511 1511 1511 1511 1511 1512 1512 1512 1512 1512 1511 1511 1511 1511 1512 1512 1512 1512 1511 1511 1511 1511 1511 1511 1510 1510 1509 1508 1508 1507 1507 1506 1507
1510 1511 1510 1509 1509 1509 1508 1508 1508 1509 1510 1511 1511 1511 1510 1510 1510 1509 1509 1509 1509 1509 1509 1509 1509 1509 1509 1509 1509 1508 1508 1507 1507 1506 1506 1505 1505 1504
1507 1507 1507 1506 1506 1506 1506 1506 1506 1507 1508 1508 1508 1508 1508 1508 1507 1507 1507 1507 1507 1507 1507 1506 1507 1507 1507 1507 1506 1506 1505 1505 1505 1504 1504 1503 1503 1502
1503 1503 1503 1503 1503 1503 1503 1503 1504 1504 1505 1506 1506 1506 1506 1505 1506 1506 1506 1506 1506 1505 1504 1504 1504 1504 1505 1504 1504 1504 1503 1503 1502 1502 1501 1501 1501 1500
1500 1500 1500 1500 1500 1500 1500 1501 1501 1502 1502 1503 1504 1504 1503 1503 1503 1503 1503 1504 1504 1503 1503 1502 1502 1502 1501 1502 1502 1501 1501 1501 1500 1499 1498 1498 1498 1498
1496 1496 1496 1496 1497 1497 1497 1497 1498 1498 1499 1500 1501 1501 1501 1501 1501 1501 1501 1501 1501 1501 1501 1500 1500 1500 1500 1499 1499 1499 1498 1498 1497 1496 1496 1495 1495 1495
1491 1492 1492 1492 1492 1493 1493 1494 1494 1495 1495 1496 1497 1497 1498 1498 1498 1498 1498 1498 1498 1498 1498 1497 1497 1497 1496 1496 1495 1495 1495 1495 1494 1494 1493 1493 1492 1492
1486 1487 1487 1487 1488 1488 1489 1490 1490 1491 1492 1492 1493 1494 1494 1495 1495 1494 1494 1494 1495 1495 1495 1494 1494 1494 1493 1493 1493 1492 1491 1492 1491 1491 1490 1490 1489 1489
1481 1482 1482 1483 1483 1484 1484 1485 1486 1487 1488 1488 1489 1489 1490 1491 1491 1491 1491 1491 1491 1491 1491 1491 1490 1490 1491 1491 1490 1489 1489 1488 1488 1487 1487 1486 1486 1485
1477 1477 1477 1478 1478 1479 1480 1481 1482 1482 1483 1484 1485 1486 1486 1486 1487 1487 1487 1487 1487 1488 1488 1488 1487 1487 1487 1487 1486 1486 1486 1485 1484 1483 1483 1483 1482 1482
1473 1473 1473 1473 1474 1474 1475 1476 1477 1478 1479 1480 1481 1481 1482 1482 1483 1483 1483 1483 1484 1484 1484 1484 1484 1484 1484 1484 1483 1483 1482 1482 1481 1481 1480 1479 1479 1478